GFSFLT1_sfc_temp_000.txt.gz
Temp
84 80 81 81 81 79 79 79 78 78 74 73 72 70 69 69 69 68 67 67 65 65 64 66 67 67 68 69 69 68 67 66 67
80 81 80 80 81 80 80 80 79 78 76 75 73 71 68 68 69 67 67 67 67 66 66 68 68 69 69 68 68 68 67 66 66
78 81 80 81 81 80 80 81 80 80 78 76 75 73 72 71 70 68 68 67 67 66 67 67 68 68 68 68 68 67 67 65 66
76 78 80 80 81 82 80 82 80 79 78 76 75 74 72 71 70 70 68 67 67 68 67 67 67 67 67 67 67 67 66 65 66
76 79 80 81 82 82 80 80 79 78 78 77 76 75 70 71 70 69 67 67 68 67 67 67 67 67 66 66 67 66 65 65 66
75 76 77 81 82 81 80 80 78 78 78 77 75 73 70 68 69 68 67 67 67 67 67 67 67 67 66 66 67 66 66 65 66
74 74 77 79 80 81 80 80 79 78 77 77 73 71 71 68 70 69 68 67 67 67 67 66 66 66 67 66 67 67 66 66 64
75 74 72 78 80 80 79 79 79 77 77 74 73 72 71 70 72 70 68 67 68 67 67 67 66 66 66 66 67 70 66 65 65
74 74 74 75 79 80 79 80 78 76 76 74 72 71 71 69 70 69 69 70 68 66 66 66 66 66 66 66 69 67 66 67 63
75 76 76 73 74 74 80 81 80 76 75 72 70 69 69 68 69 68 71 71 67 67 67 65 65 66 65 66 66 65 64 66 62
76 78 77 74 73 74 80 83 79 74 70 70 70 68 69 71 71 70 71 69 67 68 65 65 66 65 65 65 66 63 62 63 62
76 76 75 76 74 72 73 80 78 73 69 69 69 68 68 71 72 71 69 67 65 68 65 64 63 65 65 62 63 61 60 60 59
76 76 77 77 76 71 70 74 74 73 69 68 67 68 70 73 72 71 69 68 67 70 65 63 65 64 63 61 62 59 58 58 57
75 77 78 77 74 74 71 73 73 69 68 68 68 69 70 71 73 73 72 71 67 65 64 61 61 62 62 61 60 59 56 55 56
76 74 76 76 74 70 72 75 73 67 67 65 66 65 65 64 63 66 72 67 65 63 62 61 60 61 59 59 58 56 55 55 53
73 75 75 74 70 66 67 69 66 62 61 64 64 63 63 62 64 62 63 65 64 62 61 59 59 58 57 55 55 53 54 54 54
69 66 67 66 65 63 61 64 64 64 65 64 63 62 62 62 61 61 64 64 63 61 60 58 57 56 55 53 51 50 50 51 50
64 63 63 64 64 63 61 63 63 64 64 63 62 63 63 62 63 63 60 55 55 56 51 53 54 53 53 53 50 50 46 46 49
62 62 62 62 63 63 62 62 61 61 63 62 60 59 63 61 62 59 55 52 50 46 45 44 44 46 49 48 48 45 44 43 42
62 62 63 63 62 62 62 61 61 63 62 63 62 62 62 61 59 58 54 52 51 50 49 46 44 44 45 47 45 43 42 42 42

GFSFLT1_sfc_temp_003.txt.gz
Temp
80 80 79 78 78 78 78 77 77 77 75 75 70 70 68 67 66 65 64 64 63 63 63 65 65 66 66 66 67 67 66 64 65
77 80 78 78 79 78 79 79 77 77 76 76 71 71 70 68 67 65 65 64 65 64 64 66 66 66 66 67 67 67 66 64 64
77 80 78 78 79 78 79 80 80 79 78 76 73 73 72 70 68 67 66 65 65 65 65 65 66 66 66 66 66 66 64 63 64
78 77 76 78 79 80 79 81 80 79 77 76 74 73 72 69 68 67 66 66 66 65 65 65 65 66 65 65 65 65 64 64 64
73 76 76 78 79 80 79 79 79 78 78 77 75 75 69 69 68 68 66 65 66 66 65 65 66 65 65 64 64 64 64 64 65
72 74 73 76 78 79 79 78 79 79 78 77 76 73 70 68 66 67 65 66 66 66 65 65 65 65 64 64 65 64 64 64 64
72 75 75 75 76 78 79 79 78 77 78 78 74 73 72 68 68 68 70 70 68 66 65 64 64 65 66 65 65 65 64 64 63
71 71 73 75 77 77 77 77 77 77 77 76 74 73 71 71 68 70 70 68 67 67 67 68 65 65 65 65 65 68 65 64 64
71 69 73 75 78 78 77 77 76 77 76 76 73 72 72 69 67 68 70 68 66 66 69 67 64 64 64 64 68 66 66 66 63
73 72 69 70 72 73 75 76 78 76 76 75 72 72 70 68 67 67 69 70 66 66 68 66 63 64 64 64 65 64 63 66 62
71 73 73 71 71 72 73 76 76 75 72 71 71 70 69 69 68 68 69 65 67 69 68 66 65 63 63 63 65 62 61 63 61
73 72 72 71 71 70 70 72 75 73 69 70 69 68 68 67 68 70 67 68 71 72 64 63 63 63 63 62 62 60 59 59 59
70 71 73 72 71 70 68 68 71 69 67 67 67 69 69 70 70 71 67 69 70 70 65 63 62 64 62 61 62 59 57 57 57
70 72 73 72 71 72 69 68 68 66 66 66 69 68 67 67 68 68 67 66 64 64 64 62 62 64 63 63 61 60 56 55 55
73 72 73 73 70 67 67 68 67 63 64 65 66 66 66 64 64 66 64 61 61 62 63 62 60 60 60 60 59 54 55 53 55
72 70 68 70 70 68 66 65 65 63 63 65 64 64 62 62 63 64 63 61 60 60 61 61 60 59 58 58 55 53 52 53 53
65 65 63 64 64 62 62 63 64 63 64 64 64 63 62 62 63 62 63 62 61 62 61 60 59 59 58 54 51 50 50 50 49
67 64 62 63 62 61 61 63 63 63 64 65 63 62 62 61 62 61 61 56 54 58 54 54 57 56 54 52 49 49 47 47 48
61 60 60 61 60 60 61 62 62 62 62 62 61 60 61 61 60 62 60 54 50 46 47 44 43 47 50 47 48 46 44 43 42
60 60 60 60 61 61 61 60 61 61 61 61 61 60 60 61 59 59 55 53 51 49 47 44 42 43 44 46 45 44 43 41 41

GFSFLT1_sfc_temp_006.txt.gz
Temp
78 78 77 77 76 76 75 75 75 75 73 73 73 73 73 72 70 68 68 67 66 66 66 68 68 68 68 67 68 69 69 68 68
75 77 77 77 78 77 77 76 76 75 74 74 73 73 72 69 68 66 66 66 66 66 66 68 67 68 68 68 68 69 69 68 68
75 77 77 77 78 78 78 79 79 77 77 75 74 73 72 71 68 67 66 66 65 65 66 67 67 67 67 68 68 68 68 67 68
75 76 76 77 78 79 79 80 80 78 77 76 74 73 72 71 69 68 67 67 67 66 66 66 66 66 67 67 67 68 66 66 67
72 74 76 76 77 79 78 79 80 79 78 77 77 75 71 70 71 69 69 67 67 66 66 66 66 67 67 67 67 67 66 67 69
69 70 71 74 75 76 77 77 78 79 78 78 78 75 70 70 68 68 67 67 66 66 66 66 66 67 66 66 66 66 66 67 67
68 70 70 71 73 74 76 76 76 77 78 79 77 74 71 69 69 68 68 67 67 66 67 66 66 66 66 66 66 67 67 67 66
68 67 68 70 72 73 72 72 73 75 77 77 75 72 71 70 70 70 68 67 67 67 66 67 67 66 66 67 68 70 67 67 66
68 68 71 71 72 71 71 72 71 74 75 76 75 72 71 71 69 69 69 68 68 66 67 66 67 66 66 66 70 66 65 68 67
71 71 71 68 70 71 72 71 72 72 74 75 73 72 71 71 69 67 65 65 66 66 66 67 66 66 66 66 67 63 63 65 66
71 69 69 68 69 69 70 71 72 72 71 72 72 71 71 69 68 67 65 65 65 66 65 65 66 66 66 66 67 62 61 63 66
69 70 69 70 71 70 69 70 71 70 69 70 70 70 69 69 68 67 67 66 65 67 65 65 66 66 65 64 65 59 59 61 64
69 69 70 70 72 72 71 70 70 69 68 68 69 70 70 69 69 67 65 66 66 66 65 65 65 65 64 61 63 59 57 59 62
69 69 71 72 71 70 70 69 69 67 66 67 69 69 70 70 69 68 67 65 64 63 64 64 63 62 61 63 63 63 57 55 61
68 68 70 71 70 71 70 68 69 66 66 67 67 67 66 66 66 66 64 63 62 63 62 62 63 63 61 59 62 57 56 53 56
65 66 66 67 68 67 66 68 68 65 64 66 65 64 63 64 64 64 63 62 62 62 63 61 62 62 62 62 59 57 52 52 51
64 65 65 65 65 63 62 64 64 64 64 65 64 63 63 63 63 62 62 62 63 62 61 61 61 62 61 60 57 57 56 57 57
62 62 62 63 62 62 62 63 63 64 64 64 63 63 62 62 61 62 62 61 58 60 57 57 61 60 61 59 56 56 52 52 56
61 61 62 61 61 62 62 62 63 64 65 66 65 63 61 61 61 61 61 54 52 46 45 45 44 45 54 55 50 45 44 43 42
60 61 62 62 61 61 61 62 63 63 63 64 64 63 60 61 61 61 58 56 54 53 49 43 42 43 44 46 45 43 42 41 41

GFSFLT1_sfc_temp_009.txt.gz
Temp
87 87 88 87 85 85 84 84 83 83 82 80 80 81 81 81 81 83 83 81 82 81 82 81 80 79 79 79 78 78 77 79 80
85 86 88 87 87 86 85 84 83 83 82 81 82 82 81 80 81 81 81 79 79 81 79 82 79 79 78 78 77 77 77 80 78
86 87 86 88 88 87 87 87 86 85 84 83 83 83 83 82 82 80 81 79 76 78 79 79 78 78 78 78 77 78 76 78 78
87 86 86 88 87 88 87 88 87 86 85 84 83 83 83 82 82 79 80 78 74 74 77 77 77 77 77 78 77 77 76 76 77
88 86 85 87 87 87 88 87 88 87 87 86 86 85 82 81 80 79 76 77 77 77 70 77 77 77 76 77 78 78 76 76 78
83 83 84 85 86 85 86 87 87 88 87 89 89 86 84 81 78 78 78 75 76 74 74 76 77 76 75 76 77 77 77 76 76
82 80 81 83 84 84 85 85 84 85 87 89 89 88 84 80 79 79 76 74 77 75 71 73 74 75 77 77 78 77 77 77 76
79 79 80 81 82 82 82 83 83 84 86 87 88 85 83 80 79 79 79 75 68 66 67 68 70 72 74 76 77 80 76 77 77
79 79 80 81 82 82 81 82 82 83 83 85 85 83 81 81 79 78 75 72 70 67 66 66 67 69 70 72 77 69 67 73 77
81 82 82 82 82 82 82 83 83 82 82 84 82 80 80 79 78 76 74 72 71 69 66 66 67 68 69 73 75 65 64 66 76
84 85 85 83 84 83 83 86 86 84 84 81 81 79 79 79 77 75 74 72 71 69 67 69 66 69 72 74 75 62 61 64 74
85 83 82 83 85 84 81 82 83 82 81 81 80 79 78 78 77 75 73 72 69 71 68 68 70 70 71 72 72 60 59 63 68
83 84 85 83 83 82 82 82 83 80 81 80 79 80 79 79 76 75 73 71 69 71 71 69 69 71 73 70 73 58 57 61 64
80 80 80 82 84 83 82 81 83 81 80 79 81 81 79 76 75 74 74 70 69 69 68 65 65 68 71 69 68 67 55 55 68
79 79 79 83 81 80 80 80 81 78 76 76 77 77 76 73 72 71 69 67 67 70 68 65 63 66 66 67 71 58 56 54 56
75 76 76 79 80 76 77 77 78 75 74 74 75 74 72 71 72 70 68 69 67 65 66 69 66 64 64 72 70 68 52 52 52
74 75 75 77 77 75 72 73 74 72 71 74 73 71 71 71 71 69 70 71 70 67 66 66 62 69 65 69 68 71 69 67 63
72 72 73 74 75 73 70 72 72 73 73 73 72 72 72 71 72 72 70 66 64 70 67 61 65 64 71 72 69 69 61 62 67
68 69 72 71 72 71 69 71 70 71 72 73 72 71 72 72 73 72 72 66 59 45 45 44 44 45 61 64 51 45 45 45 43
66 73 73 72 71 71 71 71 71 72 73 73 72 72 71 73 70 73 70 67 69 67 54 43 41 43 46 50 47 43 41 41 41

GFSFLT1_sfc_temp_015.txt.gz
Temp
106 104 104 102 100 99 97 96 95 94 91 88 88 89 88 88 88 91 91 90 93 91 93 93 89 87 86 85 85 85 84 84 84
104 104 103 102 101 100 98 96 94 93 91 89 89 90 89 88 88 88 91 90 89 93 91 95 90 88 85 85 85 84 83 84 83
103 105 104 104 102 101 100 99 97 96 94 90 90 91 90 90 89 89 89 91 90 89 91 90 89 87 86 85 85 84 82 84 83
104 104 104 104 104 103 101 100 99 97 95 93 91 92 91 90 90 90 89 90 90 89 86 88 88 86 85 84 83 83 81 82 83
106 106 105 105 106 104 102 100 100 98 97 95 94 93 91 90 91 90 90 89 90 89 86 88 86 84 83 84 80 81 80 81 82
103 105 106 105 106 104 103 101 100 101 99 99 99 95 94 92 90 90 89 89 90 88 86 86 85 84 79 81 77 76 76 80 79
103 104 100 104 104 103 104 101 98 99 101 102 101 99 96 92 90 90 91 90 89 88 86 84 82 82 81 79 75 76 76 77 76
101 102 101 99 101 101 99 98 97 98 101 100 101 98 97 94 91 91 91 89 89 88 85 83 82 81 80 78 76 78 73 77 76
99 100 103 100 99 99 99 98 98 98 97 100 99 96 96 95 91 90 89 89 88 86 84 82 81 80 78 74 75 69 69 75 77
99 100 103 103 99 98 99 98 98 98 96 98 97 95 96 94 91 89 88 88 86 83 82 80 78 79 77 75 75 64 66 68 79
100 102 103 104 103 100 99 101 101 99 98 94 94 92 92 93 91 90 88 86 85 81 79 76 78 76 75 75 77 64 63 66 73
103 104 106 107 105 102 99 99 99 97 95 93 92 91 90 91 91 89 88 84 82 78 77 75 74 75 73 73 74 62 62 65 70
105 105 106 106 103 102 99 98 99 95 93 91 90 91 90 90 90 88 86 83 79 79 78 75 74 73 73 70 77 61 60 64 73
104 102 102 103 100 98 95 96 98 92 92 90 92 92 91 89 88 87 86 83 79 78 76 74 73 72 75 77 77 75 57 57 71
96 97 98 98 95 93 94 95 93 90 89 91 92 91 90 88 87 88 83 78 76 75 72 70 69 71 72 78 76 64 56 55 58
92 92 93 95 93 90 91 91 91 88 88 90 89 87 86 86 82 80 78 76 73 73 71 70 69 72 74 73 69 73 55 54 55
90 90 89 91 89 88 87 89 89 87 86 87 86 84 78 77 75 74 75 76 74 72 70 70 70 70 71 71 74 71 75 74 65
87 87 88 87 85 84 83 84 84 85 85 85 82 76 73 73 74 74 71 68 68 71 66 65 71 75 76 77 75 74 61 63 70
83 83 84 83 83 82 82 82 81 82 84 82 79 76 76 79 76 73 73 69 70 46 49 45 44 46 65 64 52 47 46 45 48
71 80 82 82 82 82 82 81 81 82 82 82 81 83 83 85 82 79 79 80 78 75 58 46 44 45 48 51 48 44 44 43 43

GFSFLT1_sfc_temp_021.txt.gz
Temp
94 94 93 91 88 89 87 87 84 83 81 80 80 81 80 79 78 81 78 77 76 77 77 77 75 75 75 73 73 73 72 70 70
92 91 93 92 91 90 87 87 84 84 80 81 81 81 80 80 79 79 78 77 77 77 77 78 77 77 76 74 73 72 71 70 72
89 91 94 93 91 90 88 89 87 85 82 81 81 82 81 81 81 81 79 77 77 77 77 77 77 76 76 74 74 72 70 69 71
88 94 94 93 92 91 89 90 88 85 83 82 81 81 82 82 81 80 81 77 78 79 77 75 76 77 76 75 73 73 70 69 70
86 86 95 94 93 92 88 88 88 86 83 82 82 83 82 81 82 81 80 81 78 78 79 76 78 77 75 75 75 72 72 70 72
88 85 86 93 93 91 89 88 88 87 85 83 84 83 82 81 81 81 81 80 81 78 80 78 78 77 76 75 74 73 74 72 69
90 87 85 90 92 91 91 89 88 88 87 86 84 83 82 81 81 81 82 82 81 80 80 79 76 77 77 75 74 73 72 69 67
87 86 82 82 90 89 89 88 87 88 88 88 87 84 82 82 82 83 82 81 81 81 80 79 78 75 75 74 74 73 71 71 69
86 86 86 85 87 90 88 88 86 87 87 88 88 84 83 83 82 81 81 80 80 79 80 78 77 75 73 72 74 70 69 72 72
84 85 86 84 83 87 89 88 88 86 87 88 87 85 83 83 82 80 80 80 79 78 79 79 76 75 75 72 73 66 66 69 68
84 83 86 88 87 84 85 90 90 89 88 86 85 83 83 83 81 81 81 80 79 80 79 79 76 76 73 73 71 65 64 68 69
84 89 89 87 87 86 86 88 90 88 86 85 85 83 82 82 82 81 81 79 80 80 81 78 77 75 75 72 68 62 62 64 66
81 84 88 93 93 85 85 84 89 88 86 86 83 85 84 84 83 82 80 81 80 81 79 75 74 72 72 68 68 60 60 63 68
78 82 82 88 85 82 86 82 86 87 87 86 88 86 83 83 83 82 81 81 81 76 74 72 70 70 69 68 68 63 58 58 68
79 77 81 81 81 80 79 84 86 83 83 85 84 81 83 79 82 82 80 77 75 73 72 71 69 68 67 68 67 62 57 57 60
77 78 78 78 77 77 76 80 85 80 77 81 80 80 79 78 77 77 76 73 71 70 71 69 68 67 66 66 67 65 58 56 57
74 75 75 77 78 76 74 76 77 78 79 80 79 77 75 74 73 72 72 72 71 70 68 67 67 66 66 65 66 64 59 58 58
70 71 73 74 75 75 74 76 76 78 79 78 74 73 72 71 70 66 61 55 60 67 62 66 69 67 66 65 64 64 60 59 60
66 69 69 69 72 73 74 74 73 73 75 74 71 69 69 67 68 65 63 60 57 48 47 47 49 53 61 58 54 53 50 50 52
63 66 69 70 69 70 71 72 72 72 72 71 70 68 67 67 66 66 65 65 62 57 53 47 45 46 51 53 48 47 46 45 47

GFSFLT1_sfc_temp_024.txt.gz
Temp
88 87 88 87 86 86 86 84 82 81 79 79 79 78 78 78 77 78 77 74 73 75 77 76 73 74 73 72 71 70 69 68 68
87 88 89 89 88 87 86 84 82 80 79 80 79 80 79 78 77 78 78 73 75 75 76 76 74 74 73 72 71 70 69 67 67
87 89 90 91 89 88 87 87 83 82 81 80 80 80 80 80 79 79 78 75 75 76 75 76 74 74 73 73 71 69 68 67 68
89 89 90 90 90 89 88 88 84 82 81 81 80 80 81 80 79 79 79 78 76 76 77 76 74 74 74 73 71 70 69 67 68
90 90 89 90 91 89 87 86 84 82 81 81 81 81 80 80 79 78 79 79 76 77 77 76 76 75 74 73 73 71 71 69 71
83 83 82 87 90 88 86 86 85 83 82 81 82 81 80 80 79 78 78 80 80 76 78 75 75 75 74 73 73 71 71 71 69
84 82 83 89 88 88 86 86 86 84 83 83 82 81 80 79 79 79 79 80 79 78 78 75 74 75 74 74 73 73 72 72 70
81 82 79 86 86 86 85 85 85 85 84 82 83 81 80 79 80 80 80 79 79 79 78 78 74 74 74 73 73 74 72 71 70
80 88 91 85 90 89 86 85 85 85 84 82 83 80 80 80 80 79 79 78 78 77 77 76 73 73 73 71 73 70 68 72 70
77 78 81 81 87 88 88 87 87 85 84 84 82 81 80 80 79 78 78 78 77 76 76 76 74 72 72 71 72 67 66 69 67
80 80 81 79 87 89 89 90 88 87 86 84 82 81 80 80 79 78 78 78 77 77 77 77 74 73 72 72 71 65 64 67 69
76 82 81 80 83 87 88 87 87 85 84 84 82 81 80 80 80 78 78 77 76 77 77 77 76 76 73 71 70 62 62 65 67
76 76 78 80 79 79 79 86 88 85 83 83 82 83 82 81 81 79 78 78 78 78 79 77 78 75 73 70 72 59 59 65 66
75 78 79 76 79 80 83 83 86 84 83 82 85 85 84 82 81 80 80 79 79 79 75 75 74 73 71 71 68 61 57 60 66
71 74 79 81 75 75 76 80 85 84 82 85 85 84 82 80 80 81 79 78 77 75 74 73 70 68 67 68 67 60 56 57 62
69 70 70 71 75 76 73 73 84 83 84 84 82 82 80 78 79 80 78 75 74 73 72 71 69 68 66 66 66 63 57 56 57
67 68 69 71 71 70 72 71 77 85 84 82 81 79 79 77 78 76 76 75 74 72 70 69 67 67 66 66 66 65 62 59 56
65 67 68 69 69 71 71 72 74 76 79 82 78 75 75 75 73 72 66 58 64 69 65 67 67 67 66 65 64 63 58 57 58
61 64 67 67 67 67 69 71 72 75 77 76 73 71 69 67 65 63 61 61 57 51 51 51 51 54 61 58 56 51 48 47 47
60 64 66 66 66 67 69 62 60 70 72 73 71 68 66 65 64 64 64 63 61 58 54 47 46 49 51 54 52 47 46 45 45

GFSFLT1_sfc_temp_027.txt.gz
Temp
84 84 84 84 84 84 84 82 80 79 77 77 77 77 77 78 79 77 78 74 73 74 73 73 75 74 72 70 69 69 67 66 66
82 84 84 84 85 85 85 83 81 79 78 78 77 77 78 77 78 78 76 72 74 74 73 75 72 74 72 71 70 69 67 66 66
82 84 85 86 86 86 86 86 83 82 81 79 79 79 79 78 77 78 77 74 73 73 72 73 73 73 72 71 70 69 68 66 66
83 83 85 87 88 88 87 87 83 82 81 80 80 79 79 79 78 78 77 76 74 75 72 72 73 73 72 71 70 69 68 66 66
83 86 86 88 89 88 86 85 84 81 81 80 81 81 80 79 79 78 77 77 74 75 74 73 73 73 72 72 71 70 69 68 69
76 83 85 87 88 86 85 85 84 82 81 81 82 81 80 79 78 77 77 78 78 74 76 74 74 73 72 72 71 70 70 70 68
76 77 80 81 81 84 85 85 84 81 81 82 82 81 80 78 78 78 77 79 78 75 76 74 74 74 74 73 72 72 71 70 68
74 75 79 83 85 83 83 84 83 82 82 81 82 80 79 79 79 79 78 78 78 78 75 75 75 73 73 73 73 73 72 71 69
75 74 78 82 84 84 83 85 82 83 81 80 81 79 78 79 79 79 78 77 77 76 75 76 73 73 73 72 73 69 68 72 70
74 76 77 79 85 86 86 86 86 83 82 82 80 79 79 79 78 77 77 77 76 75 75 75 72 73 73 71 72 66 66 68 69
73 75 76 79 79 80 87 88 87 86 84 81 79 78 78 79 78 77 77 76 76 75 75 74 74 72 72 72 71 65 63 67 68
74 77 77 81 82 83 81 84 85 84 82 81 79 78 78 78 78 77 77 75 76 76 75 75 74 72 71 71 70 62 61 64 68
75 76 76 78 76 76 77 83 84 83 81 80 78 79 79 80 79 78 77 77 77 77 77 76 76 73 72 69 72 60 59 64 68
72 75 74 75 73 75 79 77 82 81 81 80 82 82 81 80 80 79 78 78 78 76 75 75 75 74 74 72 71 65 57 60 67
68 68 70 70 70 71 71 75 81 80 79 83 83 82 81 79 79 79 79 77 77 75 74 74 74 73 72 72 68 58 56 57 61
67 68 68 69 68 66 66 67 72 77 81 82 81 81 81 80 79 79 79 76 74 73 73 74 73 71 70 67 65 61 56 56 59
66 67 68 69 70 70 70 71 69 69 73 76 76 78 79 79 77 77 79 77 75 73 73 73 71 69 67 67 65 64 61 62 60
63 65 65 66 66 66 66 66 65 66 67 70 72 76 78 78 78 75 72 59 68 73 72 71 70 69 68 66 65 64 60 59 60
61 63 64 65 65 65 64 61 61 62 61 63 64 70 70 70 67 63 62 63 59 50 56 56 56 55 61 63 57 52 49 48 48
59 62 63 61 62 64 65 63 60 60 61 63 61 65 65 63 63 64 65 65 64 61 55 52 51 51 52 52 55 49 46 45 45

GFSFLT1_sfc_temp_030.txt.gz
Temp
81 81 82 82 81 81 79 79 78 77 76 74 76 75 75 76 76 77 77 75 75 75 75 75 75 75 75 74 73 72 70 70 70
79 81 82 82 83 83 82 79 79 77 76 75 76 76 76 76 76 76 76 75 75 76 75 76 75 75 75 74 73 72 70 70 69
79 82 81 83 84 84 84 84 81 80 78 76 77 77 77 77 77 77 77 75 74 75 75 75 74 74 74 74 72 72 70 70 69
79 79 81 84 84 85 85 85 82 80 79 77 77 77 77 77 77 77 77 75 75 75 75 74 74 74 74 73 72 71 70 69 69
76 78 80 83 85 85 85 83 83 80 80 79 79 78 77 77 77 77 77 75 76 75 74 74 74 74 74 73 73 72 71 70 71
72 74 75 78 81 83 84 83 82 81 81 81 81 79 78 78 77 76 76 76 76 75 74 73 74 74 73 72 72 71 71 71 70
73 72 73 74 77 81 83 82 81 80 81 82 81 81 78 77 77 77 77 77 77 75 75 73 73 74 74 73 73 72 72 72 71
72 73 73 72 75 77 78 79 80 80 80 80 81 79 79 78 78 78 77 76 76 76 75 75 74 74 74 74 74 74 72 72 71
70 71 74 73 75 77 76 79 78 79 79 79 80 78 78 78 77 77 76 76 76 75 75 75 74 74 74 73 75 70 68 72 72
71 72 72 72 73 78 80 81 81 79 78 80 78 77 77 77 77 76 76 76 75 74 74 75 74 74 74 73 74 65 66 69 72
73 72 71 72 77 79 81 84 85 82 81 79 77 77 77 77 76 76 76 76 75 75 75 74 74 74 74 73 73 63 64 67 72
74 74 72 72 76 78 75 77 79 78 78 78 77 77 76 77 77 76 76 75 75 76 75 75 75 75 73 72 73 62 62 65 70
72 73 72 72 73 74 75 75 78 78 77 77 76 77 77 78 77 76 76 76 76 77 77 76 76 75 74 70 73 61 59 65 71
71 72 73 72 72 71 70 73 77 77 77 76 78 79 79 78 78 77 77 76 77 77 76 76 74 74 73 73 72 69 57 59 70
69 68 70 69 66 65 66 71 73 72 72 77 77 77 77 77 77 78 79 76 76 76 74 74 74 73 72 72 73 63 57 57 64
67 68 68 69 69 70 70 68 71 72 69 76 76 74 75 76 77 78 78 76 74 73 74 75 74 72 72 72 72 65 55 56 58
66 66 67 70 70 68 67 68 68 67 69 73 74 73 72 74 74 75 77 78 77 76 74 74 73 72 72 72 67 65 60 61 62
64 64 65 65 65 63 62 63 63 64 65 68 70 70 71 72 74 74 75 69 70 74 76 74 74 73 73 69 65 62 59 59 63
63 62 63 64 65 65 63 62 61 61 63 65 67 68 69 68 69 67 63 64 61 51 54 53 53 55 62 64 57 52 51 52 48
61 64 64 63 64 64 65 65 64 65 65 65 66 65 65 65 64 65 65 65 64 61 54 50 51 51 54 56 57 51 50 46 46

GFSFLT1_sfc_temp_033.txt.gz
Temp
89 87 89 88 88 87 85 85 85 84 82 79 80 81 80 81 81 84 85 84 86 86 87 87 86 84 84 83 83 83 81 82 82
88 89 89 89 89 89 87 86 85 83 82 80 81 82 81 80 81 82 84 84 83 86 85 88 86 85 84 84 83 82 81 83 80
89 90 90 90 90 90 90 88 87 85 84 82 82 82 82 82 82 82 83 83 82 84 86 85 85 84 84 84 83 82 80 81 80
90 90 90 91 92 92 91 91 89 87 85 83 83 83 83 82 83 83 83 83 83 83 84 83 84 83 83 83 82 82 79 80 80
91 92 91 91 92 92 91 90 90 88 87 86 85 84 82 82 83 83 83 83 83 83 82 83 84 83 83 83 83 82 80 79 81
86 87 88 89 92 91 91 91 89 90 88 89 89 85 85 83 83 83 82 82 83 83 83 83 84 83 82 82 83 81 80 80 80
88 85 87 87 88 88 90 89 87 87 88 91 90 88 86 83 83 83 84 83 83 83 82 82 82 83 83 83 83 82 82 81 80
84 85 87 86 85 85 85 86 86 86 88 87 89 85 85 84 83 84 83 83 82 83 83 83 83 82 83 83 83 85 81 81 80
85 84 87 88 87 85 85 85 85 85 86 86 87 83 83 83 83 82 82 82 82 81 81 82 82 82 82 82 84 74 70 78 82
85 85 86 86 88 87 87 87 86 85 85 86 84 82 83 83 82 81 81 82 81 80 80 82 80 81 82 81 82 67 67 69 83
87 88 89 89 91 89 87 91 93 89 88 83 82 82 82 82 81 80 81 81 80 80 81 81 81 80 81 81 82 65 65 68 80
86 88 89 88 92 90 87 88 88 87 87 84 83 82 82 82 80 79 81 80 80 81 81 81 81 82 81 80 81 63 63 67 79
88 89 90 88 89 87 87 85 90 86 85 84 82 83 83 83 82 81 81 81 80 81 81 81 84 83 82 77 81 62 60 67 83
86 87 85 85 85 85 84 85 87 84 85 83 85 86 85 84 83 81 81 81 81 82 80 81 79 80 82 81 79 78 59 60 80
82 82 81 81 80 80 80 83 84 83 82 85 85 85 84 83 82 83 84 80 79 80 80 79 78 78 79 80 80 66 58 57 62
81 80 80 82 81 78 78 80 83 81 80 83 83 83 82 82 82 82 83 80 78 79 80 81 79 80 79 80 76 77 59 57 58
77 73 75 80 79 76 74 76 78 79 80 82 83 81 81 82 81 81 82 82 76 79 82 81 82 81 78 79 74 72 63 62 60
75 74 75 76 75 74 73 74 74 76 78 81 81 81 81 81 83 80 82 83 83 84 84 83 83 83 83 78 68 63 59 60 64
72 72 73 73 73 72 72 73 73 74 75 78 80 78 81 83 85 84 84 78 70 53 52 55 56 57 72 72 57 51 49 48 50
63 71 72 70 67 67 69 72 72 72 74 75 76 76 71 70 72 78 73 71 71 69 62 49 49 50 51 54 53 50 50 49 51

GFSFLT1_sfc_temp_036.txt.gz
Temp
100 98 98 98 96 95 93 93 93 91 89 85 86 86 86 86 86 90 90 90 93 92 94 95 93 90 90 89 90 89 88 89 88
100 98 98 97 98 97 95 93 93 91 90 87 87 88 87 86 86 87 90 89 90 93 92 96 93 91 89 90 90 89 87 90 86
100 101 99 100 99 99 98 97 95 93 91 89 89 89 88 88 88 88 89 90 89 90 93 91 92 90 90 90 89 88 86 88 87
101 101 101 101 101 101 100 100 97 95 93 91 90 90 90 89 89 89 88 89 89 89 90 91 90 89 89 89 89 88 86 87 88
101 102 103 104 104 103 101 99 99 97 96 94 92 92 89 89 89 89 89 88 89 89 88 90 89 90 88 89 89 88 86 85 88
97 99 99 101 103 102 102 101 98 99 97 97 97 93 91 90 89 89 89 88 89 89 88 89 90 89 88 88 89 88 87 86 86
96 96 96 99 99 100 102 101 99 97 98 99 99 97 93 91 89 90 90 89 88 89 88 88 89 89 89 89 89 89 88 87 86
94 95 96 97 97 97 96 97 97 96 97 97 98 95 94 92 90 90 90 89 88 89 88 88 89 88 89 90 91 92 88 88 87
91 93 96 99 99 97 96 95 94 95 94 96 95 94 93 92 89 88 88 88 87 87 87 87 88 88 88 88 92 79 74 84 89
92 94 95 97 99 100 99 99 97 95 94 95 93 91 91 90 89 87 87 88 87 86 85 87 86 87 88 87 88 71 70 72 90
93 95 97 98 102 103 102 103 106 101 99 92 91 89 89 89 88 87 87 86 85 85 86 86 86 86 86 87 88 69 67 70 86
95 96 98 100 104 104 101 101 101 99 97 93 90 89 88 89 89 87 87 85 85 86 86 86 86 87 86 86 87 66 64 69 85
98 99 99 98 100 102 101 97 99 97 96 94 89 90 89 89 89 88 86 86 85 86 86 86 89 88 88 81 86 66 62 69 88
89 90 92 96 95 94 96 97 97 94 94 93 93 92 91 90 89 87 87 86 86 86 86 87 85 87 88 87 84 84 59 61 84
85 86 91 96 91 92 94 93 92 91 89 93 92 91 90 89 88 89 90 86 86 85 85 83 84 82 82 88 86 71 60 59 67
84 88 91 94 93 91 90 90 90 88 88 90 90 89 88 88 87 87 88 85 84 86 84 86 84 86 85 86 91 89 63 57 59
86 89 88 91 90 88 86 88 89 90 88 88 87 86 86 87 86 85 87 90 89 88 88 87 87 85 81 87 91 92 91 73 66
86 86 86 87 85 84 82 84 85 88 88 88 87 87 88 87 90 86 87 88 90 90 90 88 88 89 88 90 91 91 75 64 65
83 82 82 81 81 81 81 81 81 82 84 88 88 87 89 91 93 92 90 90 88 57 56 51 48 49 64 92 63 53 52 51 50
72 81 80 75 74 77 79 78 79 81 82 83 82 83 82 87 80 93 92 90 90 89 72 50 48 46 48 54 54 49 48 47 49

GFSFLT1_sfc_temp_042.txt.gz
Temp
102 101 102 99 95 94 91 92 90 89 85 82 83 84 82 82 83 85 85 85 87 86 88 88 86 85 85 84 84 84 84 84 84
100 101 102 99 97 96 93 92 90 88 85 83 84 84 84 83 82 84 84 83 86 88 86 91 88 86 85 85 85 84 84 84 82
101 101 101 100 99 97 95 95 94 91 89 85 85 85 85 85 84 84 84 84 84 85 87 87 90 85 85 85 85 85 83 84 84
101 102 101 102 101 100 98 97 95 93 91 87 86 86 85 85 85 84 84 85 85 86 86 87 86 86 85 85 84 84 83 82 83
102 102 102 102 103 102 99 96 96 95 93 92 89 87 86 85 86 86 85 84 86 86 85 86 87 86 85 85 84 84 83 82 84
98 100 101 102 103 101 100 99 96 97 95 95 94 89 88 87 86 86 85 85 85 86 85 86 87 86 85 84 85 84 84 83 83
99 98 98 100 101 100 101 98 95 95 96 97 96 94 90 87 87 87 87 86 85 86 86 84 86 86 85 85 85 85 85 84 83
98 97 99 99 100 96 95 95 94 95 98 96 97 93 91 88 87 88 87 86 86 86 86 86 85 85 86 86 86 88 84 84 84
92 94 97 99 100 100 99 97 95 95 95 97 96 92 92 90 87 86 86 86 86 85 85 85 85 85 84 85 89 79 74 82 85
93 95 96 97 99 99 99 100 98 96 95 96 94 91 91 90 88 86 86 86 85 84 84 85 84 84 85 84 85 73 72 73 86
93 96 97 98 100 99 98 104 105 99 99 92 91 90 89 90 88 87 86 85 84 84 85 84 84 84 84 84 85 72 68 71 84
96 96 96 96 99 100 98 100 99 96 96 93 91 90 89 89 89 88 86 85 84 85 85 84 84 85 84 83 84 69 66 68 82
90 91 92 91 93 94 93 92 98 95 95 93 90 90 90 90 88 88 87 86 84 85 85 85 87 85 85 80 84 71 64 67 84
88 88 89 91 91 89 90 91 94 89 91 92 93 92 91 89 88 87 87 86 85 85 84 85 84 84 85 85 83 83 63 61 82
84 84 86 89 89 89 91 90 91 88 86 91 95 91 90 88 87 89 91 85 85 85 84 82 82 82 83 86 85 70 66 59 62
82 83 82 86 89 88 89 89 91 87 86 91 92 92 88 87 87 87 86 85 84 85 83 83 82 83 83 84 87 86 63 59 59
80 81 80 83 84 88 88 94 93 90 89 89 89 88 88 87 86 85 86 89 87 86 85 83 83 83 83 85 86 86 87 77 68
78 79 79 81 82 86 87 87 88 90 91 89 88 88 88 87 88 84 85 86 86 86 86 83 86 86 86 86 85 83 66 73 80
77 77 77 79 85 85 85 85 85 85 85 87 88 86 88 88 89 88 87 86 84 51 54 51 48 50 64 74 55 49 51 55 57
73 77 77 80 83 85 84 84 83 84 84 85 86 86 86 89 85 91 86 86 85 82 57 46 47 46 47 46 46 45 46 44 45

GFSFLT1_sfc_temp_045.txt.gz
Temp
87 84 86 88 88 87 87 86 83 82 79 79 80 79 79 81 77 80 80 76 76 78 79 81 82 79 81 79 78 77 77 76 76
87 84 88 89 89 88 87 86 84 82 80 80 80 80 80 79 80 78 80 81 76 77 77 81 81 82 79 80 79 78 77 76 76
91 92 91 89 89 89 88 89 86 85 82 80 80 80 81 80 80 81 79 78 77 78 79 79 79 82 81 80 80 79 77 76 76
92 92 92 90 89 90 89 90 88 85 83 81 80 81 81 81 80 80 81 78 79 79 79 79 78 79 80 80 80 79 78 77 76
89 93 93 91 90 91 89 89 88 86 85 82 82 82 81 81 81 81 80 81 77 81 79 82 79 80 80 80 80 80 78 77 80
84 90 91 92 91 90 89 89 89 88 87 84 84 83 82 81 81 81 80 81 82 79 82 81 82 79 80 80 80 79 79 79 79
83 85 90 92 92 91 91 90 89 89 88 89 86 84 82 81 81 82 82 82 82 82 82 82 82 82 80 81 81 81 81 80 79
84 82 89 91 92 92 91 89 89 90 90 90 90 85 84 83 83 83 83 83 82 82 82 82 82 83 83 81 82 83 81 81 80
79 80 83 85 86 91 91 91 89 90 90 90 90 88 84 85 84 84 83 83 82 82 81 82 82 82 82 82 84 76 73 80 81
80 82 83 83 84 84 84 90 92 90 90 91 90 88 87 86 85 83 83 83 82 82 82 82 82 82 82 81 83 71 70 72 83
81 81 80 80 81 81 82 84 91 93 91 88 88 88 86 87 84 83 83 83 82 83 83 82 82 82 82 82 83 70 67 70 82
77 76 77 77 79 79 78 80 80 84 89 88 84 86 84 86 84 83 83 82 83 84 84 83 83 83 82 82 82 67 66 68 80
77 78 79 78 79 79 79 78 81 80 82 87 86 85 83 82 85 84 83 83 84 84 84 84 84 83 83 78 82 68 63 66 81
75 75 75 77 78 77 78 79 78 78 80 80 81 83 81 82 83 83 84 84 84 84 83 83 82 82 84 83 81 80 62 61 80
71 71 74 76 75 76 78 79 77 75 77 79 81 81 79 78 78 83 82 80 82 82 82 81 81 80 81 83 83 68 63 59 62
69 70 71 74 73 75 76 77 76 75 77 78 78 79 78 78 80 81 80 78 78 79 80 81 79 80 79 80 82 81 62 59 59
67 68 69 72 73 74 74 78 79 77 77 79 78 78 77 76 77 76 77 78 80 81 80 79 79 78 77 79 77 79 82 74 65
64 67 70 72 71 73 75 77 77 77 77 77 76 77 77 77 76 77 76 73 66 77 81 77 77 78 77 76 77 73 59 62 71
62 64 66 69 70 71 76 75 75 75 76 76 76 76 77 76 76 75 76 72 62 50 50 50 50 50 66 62 52 47 47 47 49
62 63 64 67 68 70 72 73 73 75 75 75 73 72 75 76 74 76 76 78 75 63 55 47 46 47 47 49 47 46 46 45 46

GFSFLT1_sfc_temp_048.txt.gz
Temp
81 80 85 85 85 86 84 81 81 80 79 78 77 78 77 78 76 77 78 77 72 75 75 76 77 78 78 77 77 76 74 73 74
79 81 84 86 86 86 86 82 80 80 79 80 79 79 79 77 77 79 79 74 74 73 73 77 78 79 78 78 77 76 74 73 74
80 83 86 86 86 86 87 85 83 81 80 80 80 80 80 79 79 77 78 77 73 75 74 76 78 77 79 78 78 77 75 74 74
82 85 86 85 87 87 88 87 84 81 80 80 79 80 80 80 79 79 76 77 77 78 76 75 75 78 78 78 78 77 75 75 74
85 86 86 86 88 88 87 86 84 82 81 80 80 80 80 79 79 79 78 77 77 78 78 77 75 76 76 77 78 78 77 76 78
86 86 85 86 88 87 86 86 84 82 82 80 80 80 79 79 78 78 77 78 79 78 78 79 76 75 76 77 78 78 78 78 77
84 87 86 88 87 87 86 86 85 83 83 82 81 80 79 78 78 78 78 78 79 79 78 78 78 77 77 77 78 79 79 79 77
82 86 87 87 86 86 86 85 86 85 84 83 82 80 79 78 79 80 79 78 78 79 79 78 80 80 77 78 79 80 79 79 78
80 84 87 87 87 87 86 86 85 86 85 84 83 80 79 80 79 79 79 79 78 78 78 79 79 79 80 77 80 74 72 78 79
74 77 86 87 88 88 88 87 87 86 85 86 84 81 81 80 80 79 79 80 79 78 78 79 79 79 80 80 80 69 69 71 81
74 76 76 76 77 78 82 88 89 88 87 85 84 83 81 81 80 80 80 79 79 79 80 79 79 79 80 79 81 68 66 69 79
70 70 71 72 75 76 77 79 81 88 86 85 84 83 83 82 82 80 80 79 79 81 80 80 80 80 80 80 80 66 64 67 76
70 71 71 71 72 74 74 74 75 80 84 84 83 84 84 84 83 82 80 80 81 82 82 81 82 81 81 76 80 66 63 66 78
69 70 71 71 70 70 70 72 75 75 76 79 84 83 84 83 84 82 83 82 82 82 81 82 81 80 82 81 79 79 61 61 79
67 68 70 71 70 70 70 71 74 73 75 77 77 79 77 77 80 83 83 81 81 81 81 80 79 79 79 81 81 67 61 59 62
64 66 68 71 70 70 72 75 71 71 71 74 76 76 75 75 76 77 78 78 79 78 79 80 78 79 78 79 80 78 61 59 59
62 64 65 67 69 69 69 71 74 73 73 74 74 73 74 73 73 72 74 79 79 79 78 78 78 77 77 78 76 76 76 70 65
60 61 63 65 65 67 67 71 71 73 73 73 72 73 73 73 73 71 72 63 64 74 74 75 77 77 76 75 75 76 68 69 71
59 60 61 63 63 64 66 69 69 71 72 72 71 70 71 73 73 72 69 62 59 49 48 47 50 57 67 59 53 49 49 48 48
59 60 60 61 62 62 64 67 68 70 71 71 71 69 69 70 70 73 72 66 64 60 55 49 46 45 47 50 50 46 47 47 48